Location: Groß Eilstorf
(52.8200°N, 9.4552°E)
Time: 20:34:15
(UTC+00:00)

Cosmos 2360 Rocket - Pass Details

Date: 15 May 2026
Orbit: 831 x 845 km, 71.0° (Epoch: 7 June)

Event Time Altitude Azimuth Distance (km) Brightness Sun altitude
Rises 21:44:25 0° 324° (NW) 3,417 7.0 -15.3°
Reaches altitude 10° 21:47:05 10° 314° (NW) 2,477 5.7 -15.5°
Maximum altitude 21:52:02 32° 254° (WSW) 1,428 3.4 -15.7°
Enters shadow 21:55:46 16° 201° (SSW) 2,086 3.8 -15.9°
